{"data":{"norad_id":59407,"epoch":"2026-09-21T15:47:40.039584Z","epoch_age_seconds":64801,"freshness":"FRESH","line1":"1 59407U 24064K   26264.65810231  .00000295  00000+0  20251-4 0  9996","line2":"2 59407  43.0036  29.7023 0001096 268.5146  91.5580 15.27581989139190","mean_motion":15.27581989,"eccentricity":0.0001096,"inclination_deg":43.0036,"raan_deg":29.7023,"arg_perigee_deg":268.5146,"mean_anomaly_deg":91.558,"bstar":2.0251e-5,"rev_number":13919,"period_min":94.266625972899,"perigee_km":482.2911549212,"apogee_km":483.79512560795,"semimajor_km":6861.1801402646,"source":"CELESTRAK","updated_at":"2026-09-22T09:00:48.915248Z"}}